Location: El Bakhil
(32.7726°N, 5.5387°W)
Time: 20:14:57
(UTC+00:00)

Envisat - Pass Details

Date: 03 December 2021
Orbit: 764 x 766 km, 98.2° (Epoch: 18 January)

Event Time Altitude Azimuth Distance (km) Brightness Sun altitude
Rises 04:32:59 0° 25° (NNE) 3,235 6.4 -32.0°
Reaches altitude 10° 04:35:34 10° 36° (NE) 2,304 5.8 -31.5°
Maximum altitude 04:39:59 30° 97° (E) 1,354 4.8 -30.5°
Drops below altitude 10° 04:44:22 10° 157° (SSE) 2,291 5.8 -29.6°
Sets 04:46:55 0° 168° (SSE) 3,213 6.5 -29.1°
